Location: Emory University Observatory
(33.7903°N, 84.3267°W)
Time: 20:11:29
(UTC-04:00)

OTV 5 (USA 277) - Pass Details

Date: 12 October 2017
Orbit: 404 x 417 km, 43.0° (Epoch: 07 September)

Event Time Altitude Azimuth Distance (km) Brightness Sun altitude
Rises 21:13:41 0° 290° (WNW) 2,352 ? -27.1°
Reaches altitude 10° 21:16:19 10° 311° (NW) 1,489 ? -27.7°
Enters shadow 21:17:10 14° 324° (NW) 1,283 ? -27.8°
